[[{"header":{"parameterUnit":"m.s-1","parameterCategory":1,"la1":30.2991,"la2":30.254,"lo1":-89.0895,"lo2":-89.0444,"dy":0.0017,"dx":0.0017,"nx":28,"ny":28,"refTime":"2024-12-10T09:00:00:Z","depth":0,"parameterNumber":2,"parameterNumberName":"U-component_of_WINDS"},"data":[0,0,0,0,0,0,0,0,0,0,0,0,0,0,0,0,0,0,0,0,0,0,0,0,0,0,0,0,0,0,0,0,0,0,0,0,0,0,0,0,0,0,0,0,0,0,0,0,0,0,0,0,0,0,0,0,0,0,5.1827,5.1828,0,5.1913,5.1914,5.1915,5.1871,5.1869,5.1866,5.1864,5.195,5.1955,5.1959,0,0,0,0,0,0,0,0,0,0,0,0,0,5.1626,5.163,5.1827,5.1828,5.1829,5.1913,5.1914,5.1915,5.1871,5.1869,5.1866,5.1863,5.1949,5.1954,5.1959,0,0,0,0,0,0,0,0,0,0,0,0,0,5.1713,5.1631,5.1827,5.1818,5.1818,5.1913,5.1914,5.1915,5.1872,5.1869,5.1865,5.1862,5.1947,5.1954,5.196,5.2069,0,0,5.198,5.1983,0,0,0,0,0,0,0,0,5.1708,5.172,5.1818,5.1818,5.1819,5.1878,5.1875,5.1967,5.1873,5.1851,5.1864,5.186,5.1929,5.1937,5.196,5.2073,5.2077,5.1981,5.1985,5.1988,5.199,0,0,0,0,0,0,0,5.1702,5.1716,5.1861,5.1819,5.182,5.1809,5.1818,5.1892,5.1908,5.1853,5.185,5.1861,5.1928,5.1954,5.1962,5.2078,5.1981,5.1987,5.1991,5.1993,5.2287,5.229,0,0,0,0,0,0,5.1696,5.1711,5.1858,5.1864,5.1754,5.1816,5.1825,5.1862,5.1907,5.1911,5.1864,5.1858,5.1944,5.1954,5.1965,5.2096,5.1988,5.1994,5.1998,5.2283,5.2288,5.2292,0,0,0,0,0,0,5.1692,5.171,5.1855,5.1787,5.1804,5.1823,5.1865,5.1866,5.1891,5.1915,5.1918,5.1887,5.1942,5.1956,5.2044,5.2099,5.1997,5.2003,5.2278,5.2284,5.229,5.236,0,0,0,0,0,0,5.1687,5.1709,5.175,5.1788,5.1808,5.1933,5.1868,5.187,5.1903,5.1897,5.1938,5.1941,5.194,5.2034,5.2051,5.2106,5.2008,5.2274,5.2281,5.2288,5.2353,5.2367,5.238,0,0,0,0,0,5.168,5.1765,5.1752,5.177,5.186,5.1936,5.1947,5.1945,5.1907,5.1949,5.1965,5.194,5.2091,5.2044,5.2062,5.212,5.227,5.2279,5.2287,5.2346,5.2364,5.2379,0,0,0,0,0,0,5.1731,5.177,5.1756,5.1856,5.1893,5.1928,5.198,5.1964,5.2012,5.2004,5.1999,5.2009,5.2101,5.2119,5.2067,5.2229,5.2174,5.2187,5.2213,5.223,5.2244,5.2237,5.2014,0,0,0,0,0,5.1755,5.1813,5.1843,5.1929,5.1949,5.1962,5.1995,5.199,5.2028,5.2043,5.2065,5.2103,5.2159,5.2196,5.2248,5.2356,5.2364,5.2405,5.2418,5.2429,5.244,5.25,5.2518,5.232,5.232,5.232,0,0,5.1803,5.1831,5.1868,5.1941,5.1969,5.203,5.1975,5.2041,5.2087,5.2053,5.2138,5.2157,5.2198,5.2297,5.2342,5.2315,5.2497,5.244,5.2449,5.2454,5.2511,5.2529,5.2546,5.2326,5.2325,5.2324,0,0,5.1922,5.1949,5.2024,5.2055,5.2099,5.2107,5.2126,5.2164,5.2175,5.2261,5.2238,5.2292,5.2388,5.242,5.2448,5.2583,5.2562,5.2601,5.2671,5.2729,5.2745,5.2759,5.2808,5.2826,5.2611,5.2612,5.2612,0,5.1976,5.2067,5.2065,5.2134,5.2167,5.2142,5.2219,5.2248,5.2307,5.233,5.23,5.2422,5.2448,5.2555,5.2588,5.2612,5.2633,5.2595,5.2743,5.2757,5.277,5.2817,5.2835,5.2616,5.2616,5.2615,5.2615,0,5.2132,5.2196,5.2252,5.2311,5.235,5.2423,5.2433,5.2473,5.2466,5.2479,5.2568,5.2599,5.2658,5.2684,5.2677,5.279,5.2773,5.2743,5.2688,5.2793,5.2837,5.2855,5.2622,5.2621,5.2619,5.2618,0,0,5.2284,5.2343,5.2364,5.2391,5.244,5.2489,5.2561,5.2621,5.2656,5.2699,5.276,5.2843,5.2817,5.285,5.2847,5.2898,5.3005,5.2862,5.2863,5.2888,5.3134,5.3156,5.3176,5.2992,5.2995,5.2998,5.313,0,5.2407,5.2534,5.2536,5.2652,5.2712,5.269,5.2754,5.2791,5.2805,5.2858,5.2873,5.2933,5.2893,5.2913,5.2963,5.2981,5.3054,5.2972,5.3049,5.3052,5.3039,5.3199,5.3222,5.3345,5.3148,5.315,5.3153,0,5.2566,5.2616,5.2739,5.2781,5.2806,5.2863,5.2919,5.297,5.3012,5.3019,5.3057,5.3048,5.3122,5.3066,5.317,5.3114,5.3146,5.316,5.3165,5.3171,5.3108,5.321,5.3384,5.3403,5.3179,5.3177,5.3175,0,5.2666,5.2763,5.285,5.2874,5.2925,5.2966,5.2989,5.3028,5.3064,5.3114,5.3137,5.3194,5.3226,5.327,5.3277,5.3235,5.3381,5.3325,5.3389,5.339,5.342,5.3418,5.3602,5.3441,5.3441,5.3441,5.344,0,5.2802,5.2879,5.2895,5.2948,5.3034,5.3036,5.3121,5.3141,5.3176,5.3234,5.3219,5.3273,5.3278,5.3334,5.334,5.3425,5.3439,5.3447,5.3448,5.3449,5.3448,5.3469,5.346,5.3446,5.3445,5.3444,5.3443,0,5.2927,5.2941,5.3034,5.3076,5.3089,5.315,5.3186,5.3237,5.3251,5.3324,5.3341,5.3363,5.3429,5.344,5.3517,5.3521,5.3624,5.3615,5.3609,5.3608,5.3672,5.3666,5.3876,5.3904,5.3725,5.3727,5.3728,0,5.3013,5.3072,5.3121,5.3159,5.3184,5.3245,5.3283,5.3288,5.3329,5.3383,5.3428,5.3493,5.3544,5.3651,5.3673,5.3733,5.3726,5.3795,5.3734,5.3734,5.3727,5.3724,5.373,5.3806,5.3808,5.381,5.3811,0,5.3165,5.317,5.3225,5.3284,5.333,5.3377,5.3421,5.3453,5.3464,5.351,5.3578,5.3618,5.3698,5.3762,5.3822,5.3846,5.3831,5.3831,5.3849,5.385,5.3844,5.3849,5.3641,5.3825,5.3824,5.3823,5.3822,5.3822,5.3273,5.3325,5.3368,5.3431,5.3466,5.3508,5.3559,5.358,5.3637,5.3703,5.3703,5.3777,5.3821,5.3899,5.3928,5.3987,5.3964,5.399,5.3997,5.4003,5.401,5.3836,5.3998,5.3997,5.3997,5.3996,5.3996,0,5.3424,5.3452,5.351,5.3573,5.3623,5.3606,5.3655,5.3698,5.3764,5.3806,5.3858,5.3937,5.4,5.4029,5.4092,5.4134,5.4128,5.415,5.4147,5.4153,5.4026,5.4004,5.4153,5.4153,5.4153,5.4153,5.4153,5.4153,5.3509,5.3596,5.3607,5.3712,5.3739,5.3813,5.3842,5.3881,5.3915,5.4004,5.4057,5.4076,5.4114,5.418,5.4237,5.4244,5.4268,5.4293,5.4297,5.4177,5.4161,5.4146,5.4126,5.4298,5.4298,5.4419,5.442,5.4421]},{"header":{"parameterUnit":"m.s-1","parameterCategory":1,"la1":30.2991,"la2":30.254,"lo1":-89.0895,"lo2":-89.0444,"dy":0.0017,"dx":0.0017,"nx":28,"ny":28,"refTime":"2024-12-10T09:00:00:Z","depth":0,"parameterNumber":3,"parameterNumberName":"V-component_of_WINDS"},"data":[0,0,0,0,0,0,0,0,0,0,0,0,0,0,0,0,0,0,0,0,0,0,0,0,0,0,0,0,0,0,0,0,0,0,0,0,0,0,0,0,0,0,0,0,0,0,0,0,0,0,0,0,0,0,0,0,0,0,-7.0429,-7.0431,0,-7.0569,-7.0571,-7.0572,-7.0517,-7.0513,-7.051,-7.0507,-7.0647,-7.0654,-7.0661,0,0,0,0,0,0,0,0,0,0,0,0,0,-7.0111,-7.0117,-7.0429,-7.0431,-7.0432,-7.0569,-7.0571,-7.0573,-7.0517,-7.0513,-7.0509,-7.0505,-7.0645,-7.0653,-7.0661,0,0,0,0,0,0,0,0,0,0,0,0,0,-7.025,-7.0119,-7.0429,-7.0421,-7.0422,-7.0569,-7.0571,-7.0573,-7.0518,-7.0513,-7.0508,-7.0503,-7.0642,-7.0652,-7.0662,-7.0824,0,0,-7.0694,-7.0698,0,0,0,0,0,0,0,0,-7.0242,-7.0262,-7.0421,-7.0422,-7.0423,-7.052,-7.051,-7.0657,-7.0519,-7.0481,-7.0507,-7.0501,-7.0609,-7.0622,-7.0659,-7.083,-7.0836,-7.0695,-7.0701,-7.0705,-7.0708,0,0,0,0,0,0,0,-7.0233,-7.0255,-7.0484,-7.0423,-7.0424,-7.041,-7.0425,-7.0538,-7.0571,-7.0484,-7.0481,-7.0498,-7.0609,-7.0649,-7.0661,-7.0839,-7.0694,-7.0703,-7.071,-7.0714,-7.1151,-7.1157,0,0,0,0,0,0,-7.0223,-7.0248,-7.048,-7.0489,-7.0319,-7.042,-7.0436,-7.0494,-7.057,-7.0576,-7.0502,-7.0495,-7.0634,-7.065,-7.0666,-7.0861,-7.0705,-7.0715,-7.072,-7.1146,-7.1153,-7.1159,0,0,0,0,0,0,-7.0216,-7.0244,-7.0474,-7.0367,-7.0396,-7.0431,-7.0496,-7.0499,-7.054,-7.0583,-7.0588,-7.0537,-7.0631,-7.0652,-7.0786,-7.0865,-7.0719,-7.0728,-7.1139,-7.1148,-7.1156,-7.1252,0,0,0,0,0,0,-7.0208,-7.0242,-7.0304,-7.0369,-7.0401,-7.0592,-7.0501,-7.0506,-7.0558,-7.055,-7.0618,-7.0624,-7.0628,-7.0771,-7.0796,-7.0877,-7.0736,-7.1132,-7.1143,-7.1153,-7.1242,-7.1263,-7.1281,0,0,0,0,0,-7.0196,-7.0325,-7.0308,-7.0336,-7.048,-7.0597,-7.0615,-7.0619,-7.0564,-7.0627,-7.0655,-7.0622,-7.0853,-7.0785,-7.0813,-7.0898,-7.1127,-7.114,-7.1152,-7.1233,-7.1259,-7.128,0,0,0,0,0,0,-7.0267,-7.0333,-7.0315,-7.0468,-7.0528,-7.0587,-7.0666,-7.0645,-7.072,-7.0709,-7.0709,-7.0725,-7.0863,-7.0894,-7.0817,-7.1059,-7.0982,-7.1,-7.1034,-7.1058,-7.1077,-7.1067,-7.0745,0,0,0,0,0,-7.0301,-7.0391,-7.0443,-7.0574,-7.0605,-7.0631,-7.0682,-7.0679,-7.074,-7.0765,-7.0802,-7.0862,-7.0948,-7.1005,-7.1086,-7.1246,-7.126,-7.1318,-7.1338,-7.1353,-7.1369,-7.1457,-7.1484,-7.1199,-7.1199,-7.1199,0,0,-7.0371,-7.0418,-7.0475,-7.0589,-7.0635,-7.0728,-7.0652,-7.0753,-7.0823,-7.078,-7.0909,-7.0939,-7.1006,-7.1154,-7.1221,-7.1183,-7.1451,-7.1369,-7.1381,-7.1389,-7.1473,-7.15,-7.1524,-7.1208,-7.1206,-7.1205,0,0,-7.0546,-7.0591,-7.0705,-7.0753,-7.0824,-7.084,-7.0868,-7.0932,-7.095,-7.1081,-7.1051,-7.1133,-7.128,-7.133,-7.1374,-7.157,-7.1543,-7.1597,-7.1697,-7.1783,-7.1805,-7.1825,-7.1896,-7.1922,-7.1613,-7.1613,-7.1613,0,-7.0624,-7.0764,-7.0766,-7.0871,-7.0923,-7.089,-7.1006,-7.1051,-7.1145,-7.1181,-7.1138,-7.1324,-7.1367,-7.1526,-7.1575,-7.1611,-7.1643,-7.1589,-7.1802,-7.1822,-7.1841,-7.1908,-7.1935,-7.1619,-7.1618,-7.1618,-7.1617,0,-7.0857,-7.0955,-7.1038,-7.1131,-7.1192,-7.1302,-7.132,-7.1381,-7.1374,-7.1395,-7.1529,-7.1579,-7.1671,-7.1708,-7.1701,-7.1868,-7.1843,-7.1801,-7.1724,-7.1874,-7.1938,-7.1964,-7.1628,-7.1626,-7.1624,-7.1622,0,0,-7.108,-7.1174,-7.1205,-7.1247,-7.1324,-7.1399,-7.1507,-7.1598,-7.1652,-7.1717,-7.1808,-7.1935,-7.1898,-7.1948,-7.1947,-7.2022,-7.2176,-7.1972,-7.1973,-7.2009,-7.2364,-7.2395,-7.2425,-7.2158,-7.2163,-7.2167,-7.2358,0,-7.1262,-7.1454,-7.1459,-7.1634,-7.1725,-7.1696,-7.179,-7.1847,-7.187,-7.195,-7.1975,-7.2066,-7.2009,-7.204,-7.2113,-7.2142,-7.2247,-7.2128,-7.2243,-7.2247,-7.2228,-7.2458,-7.2491,-7.2669,-7.2383,-7.2387,-7.239,0,-7.15,-7.1575,-7.176,-7.1825,-7.1863,-7.1948,-7.2033,-7.211,-7.2174,-7.2185,-7.2243,-7.2231,-7.2341,-7.2261,-7.2413,-7.2332,-7.2379,-7.2401,-7.2408,-7.2419,-7.2328,-7.2476,-7.2726,-7.2753,-7.2429,-7.2426,-7.2423,0,-7.1646,-7.1793,-7.1923,-7.196,-7.2038,-7.2099,-7.2135,-7.2194,-7.2249,-7.2323,-7.2359,-7.2444,-7.2491,-7.2557,-7.2568,-7.2508,-7.2722,-7.2641,-7.2734,-7.2734,-7.2781,-7.2778,-7.3042,-7.281,-7.281,-7.2809,-7.2809,0,-7.1849,-7.1963,-7.199,-7.207,-7.2197,-7.2202,-7.2328,-7.2359,-7.2412,-7.2497,-7.2477,-7.2557,-7.2566,-7.2649,-7.2658,-7.2784,-7.2805,-7.2817,-7.2819,-7.282,-7.2819,-7.2851,-7.2839,-7.2816,-7.2815,-7.2813,-7.2812,0,-7.2033,-7.2055,-7.2195,-7.2259,-7.2278,-7.2369,-7.2423,-7.25,-7.2521,-7.2629,-7.2655,-7.2688,-7.2785,-7.2802,-7.2916,-7.2922,-7.3072,-7.3061,-7.3051,-7.305,-7.3143,-7.3134,-7.3438,-7.3479,-7.3219,-7.3222,-7.3224,0,-7.2162,-7.2249,-7.2323,-7.2379,-7.2418,-7.2509,-7.2565,-7.2574,-7.2634,-7.2715,-7.2782,-7.2876,-7.2953,-7.3109,-7.3142,-7.3229,-7.322,-7.3321,-7.3233,-7.3232,-7.3223,-7.3218,-7.3227,-7.3337,-7.334,-7.3342,-7.3344,0,-7.2388,-7.2395,-7.2478,-7.2566,-7.2634,-7.2703,-7.2768,-7.2815,-7.2833,-7.2901,-7.3,-7.306,-7.3177,-7.3271,-7.3358,-7.3394,-7.3373,-7.3372,-7.3398,-7.3401,-7.3392,-7.3399,-7.3098,-7.3365,-7.3363,-7.3361,-7.336,-7.3359,-7.2549,-7.2626,-7.2691,-7.2784,-7.2834,-7.2896,-7.2972,-7.3003,-7.3087,-7.3184,-7.3184,-7.3293,-7.3356,-7.3471,-7.3512,-7.3597,-7.3565,-7.3603,-7.3613,-7.3622,-7.3632,-7.3378,-7.3613,-7.3612,-7.3612,-7.3611,-7.3611,0,-7.2775,-7.2815,-7.2901,-7.2994,-7.3068,-7.3043,-7.3114,-7.3177,-7.3274,-7.3335,-7.3411,-7.3526,-7.3618,-7.366,-7.375,-7.3811,-7.3803,-7.3834,-7.383,-7.3839,-7.3654,-7.3623,-7.3839,-7.3839,-7.3839,-7.3839,-7.3839,-7.3839,-7.2901,-7.3031,-7.3046,-7.32,-7.3239,-7.3347,-7.3391,-7.3448,-7.3497,-7.3626,-7.3703,-7.373,-7.3784,-7.3879,-7.3962,-7.3972,-7.4006,-7.4042,-7.4048,-7.3875,-7.3852,-7.383,-7.38,-7.405,-7.405,-7.4225,-7.4227,-7.4228]}]]